EW4964 Weather Reports


time (UTC)temp
C
wind
direction
speed
KPH
gust
KPH
rain 1hr
cm
rain 24hr
cm
rain mn
cm
humidity
%
barometer
mb
20260505124506 24 192 9.7 17.7 0.00 0.00 0.00 22 1011.8
20260505121507 23 216 9.7 17.7 0.00 0.00 0.00 22 1012.2
20260505120006 23 250 8.0 19.3 0.00 0.00 0.00 22 1012.0
20260505114506 22 235 9.7 17.7 0.00 0.00 0.00 22 1012.0
20260505113006 22 243 9.7 17.7 0.00 0.00 0.00 22 1012.3
20260505101506 20 147 9.7 17.7 0.00 0.00 0.00 24 1012.7
20260505100006 20 169 8.0 14.5 0.00 0.00 0.00 24 1012.5
20260505094505 19 211 8.0 16.1 0.00 0.00 0.00 24 1012.5
20260505093006 19 255 6.4 17.7 0.00 0.00 0.00 25 1012.9
20260505091506 18 163 9.7 17.7 0.00 0.00 0.00 24 1012.9
20260505083005 16 165 6.4 14.5 0.00 0.00 0.00 26 1012.7
20260505080006 15 230 8.0 16.1 0.00 0.00 0.00 31 1012.7
20260505074505 14 225 8.0 16.1 0.00 0.00 0.00 31 1012.8
20260505073006 13 185 9.7 17.7 0.00 0.00 0.00 31 1012.6
20260505071505 12 231 11.3 17.7 0.00 0.00 0.00 31 1013.0
20260505070005 12 233 9.7 17.7 0.00 0.00 0.00 31 1012.8
20260505064506 12 224 9.7 16.1 0.00 0.00 0.00 31 1013.0
20260505063006 13 213 8.0 12.9 0.00 0.00 0.00 31 1013.1
20260505061505 12 259 9.7 12.9 0.00 0.00 0.00 31 1013.0
20260505060006 12 234 9.7 20.9 0.00 0.00 0.00 31 1013.2
20260505054505 12 214 11.3 17.7 0.00 0.00 0.00 31 1013.1
20260505051505 11 223 6.4 12.9 0.00 0.00 0.00 34 1012.9
20260505041505 10 162 3.2 6.4 0.00 0.00 0.00 34 1013.4
20260505040005 10 135 1.6 8.0 0.00 0.00 0.00 34 1013.4
20260505034505 10 151 3.2 6.4 0.00 0.00 0.00 34 1013.4
20260505033004 10 140 1.6 6.4 0.00 0.00 0.00 34 1013.6
20260505031505 10 90 1.6 3.2 0.00 0.00 0.00 34 1013.8
20260505030004 10 161 3.2 6.4 0.00 0.00 0.00 34 1013.9
20260505024505 10 90 1.6 3.2 0.00 0.00 0.00 33 1014.0
20260505023004 11 4 1.6 3.2 0.00 0.00 0.00 33 1014.2
20260505021505 11 345 1.6 4.8 0.00 0.00 0.00 31 1014.6
20260505020004 11 341 4.8 11.3 0.00 0.00 0.00 31 1014.5
20260505014505 12 225 1.6 6.4 0.00 0.00 0.00 31 1014.5
20260505013004 12 225 6.4 8.0 0.00 0.00 0.00 31 1014.5
20260505011505 12 225 4.8 8.0 0.00 0.00 0.00 31 1014.3
20260505010005 12 217 4.8 9.7 0.00 0.00 0.00 29 1014.6
20260505004505 12 243 6.4 9.7 0.00 0.00 0.00 29 1014.7
20260505003006 13 187 6.4 14.5 0.00 0.00 0.00 29 1015.0
20260505001505 13 196 6.4 11.3 0.00 0.00 0.00 29 1015.0
20260505000004 13 245 6.4 16.1 0.00 0.00 0.00 29 1015.3
20260504234505 13 234 4.8 9.7 0.00 0.00 0.00 29 1015.6
20260504233004 13 225 6.4 11.3 0.00 0.00 0.00 29 1015.2
20260504231507 13 270 6.4 12.9 0.00 0.00 0.00 29 1015.5
20260504224507 13 206 6.4 12.9 0.00 0.00 0.00 29 1015.8
20260504223008 13 270 4.8 8.0 0.00 0.00 0.00 29 1016.0
20260504221507 13 270 4.8 8.0 0.00 0.00 0.00 31 1016.0
20260504220010 13 270 4.8 9.7 0.00 0.00 0.00 31 1016.1
20260504214507 13 270 4.8 11.3 0.00 0.00 0.00 31 1016.4
20260504213008 13 270 4.8 8.0 0.00 0.00 0.00 31 1016.6
20260504211508 13 270 4.8 12.9 0.00 0.00 0.00 31 1016.6
20260504210007 13 270 3.2 8.0 0.00 0.00 0.00 31 1016.6
20260504204508 14 270 4.8 12.9 0.00 0.00 0.00 31 1016.6
20260504203007 14 187 3.2 9.7 0.00 0.00 0.00 31 1016.7
20260504201507 15 181 6.4 14.5 0.00 0.00 0.00 29 1016.8
20260504200008 15 177 4.8 12.9 0.00 0.00 0.00 29 1016.9
20260504194508 15 225 6.4 12.9 0.00 0.00 0.00 31 1016.8
20260504193007 15 225 6.4 11.3 0.00 0.00 0.00 31 1016.9
20260504190007 15 225 3.2 6.4 0.00 0.00 0.00 31 1016.8
20260504184507 15 225 3.2 6.4 0.00 0.00 0.00 31 1016.8
20260504183007 16 225 3.2 8.0 0.00 0.00 0.00 31 1016.7
20260504180008 17 225 1.6 3.2 0.00 0.00 0.00 26 1016.7
20260504174507 18 225 3.2 8.0 0.00 0.00 0.00 25 1016.8
20260504173007 18 225 3.2 11.3 0.00 0.00 0.00 26 1016.7
20260504171507 19 225 3.2 6.4 0.00 0.00 0.00 26 1016.7